Location: Melbourne
(37.8170°S, 144.9670°E)
Time: 22:11:40
(UTC+11:00)

ERBS - Visible Passes

Search period start: 02 March 2015 00:00
Search period end: 12 March 2015 00:00
Orbit: 456 x 473 km, 57.0° (Epoch: 01 March)

Date Brightness Start Highest point End Pass type
(mag) Time Alt. Az. Time Alt. Az. Time Alt. Az.
02 Mar 2.7 20:33:51 10° SW 20:37:28 56° SE 20:40:55 11° NE visible
02 Mar 5.3 22:13:00 10° W 22:14:25 12° WNW 22:14:51 11° NW visible
03 Mar 5.1 21:39:39 10° W 21:41:58 16° WNW 21:43:58 11° NNW visible
04 Mar 4.8 21:06:38 10° WSW 21:09:29 21° WNW 21:12:13 10° N visible
05 Mar 4.4 20:33:46 10° WSW 20:36:58 28° NW 20:40:05 10° N visible
